Weather History for Benson, MN

Change the Weather History Date:

Saturday, March 23, 2013

  Actual Average Record
Temperature  
Mean Temperature 14 °F -  
Max Temperature 24 °F 40 °F 71 °F (2003)
Min Temperature 5 °F 22 °F -10 °F (1965)
Degree Days  
Heating Degree Days 50    
Moisture  
Dew Point 13 °F    
Average Humidity 82    
Maximum Humidity 93    
Minimum Humidity 69    
Precipitation  
Precipitation 0.00 in - - ()
Sea Level Pressure  
Sea Level Pressure 30.14 in    
Wind  
Wind Speed 5 mph (NNW)    
Max Wind Speed 13 mph    
Max Gust Speed -    
Visibility 10 miles    
Events      
Averages and records for this station are not official NWS values.
T = Trace of Precipitation, MM = Missing Value Source: NWS Daily Summary

Daily Weather History Graph

Daily Weather History Graph

Search for Another Location

Airport:

Trip Planner

Search our weather history database for the weather conditions in past years. The results will help you decide how hot, cold, wet, or windy it might be!

Date:

Astronomy

Mar. 23, 2013 Rise Set
Actual Time 7:19 AM CDT 7:39 PM CDT
Civil Twilight 6:49 AM CDT 8:08 PM CDT
Nautical Twilight 6:15 AM CDT 8:43 PM CDT
Astronomical Twilight 5:39 AM CDT 9:19 PM CDT
Moon 3:58 PM CDT (3/23) 5:05 AM CDT (3/23)
Length of Visible Light 13h 18m
Length of Day
12h 19m
Waxing Gibbous, 85% of the Moon is Illuminated
Mar 23
Waxing Gibbous
Mar 27
Full
Apr 2
Last Quarter
Apr 10
New
Apr 18
First Quarter

Hourly Weather History & Observations

Time (CDT) Temp. Windchill Dew Point Humidity Pressure Visibility Wind Dir Wind Speed Gust Speed Precip Events Conditions
12:13 AM 14.0 °F 8.2 °F 10.4 °F 86% 30.09 in 10.0 mi NNE 3.5 mph - N/A   Clear
12:52 AM 10.4 °F 4.0 °F 6.8 °F 85% 30.09 in 10.0 mi NNW 3.5 mph - N/A   Clear
1:13 AM 8.6 °F 0.1 °F 6.8 °F 92% 30.10 in 10.0 mi NNW 4.6 mph - N/A   Clear
1:32 AM 8.6 °F 0.1 °F 6.8 °F 92% 30.10 in 10.0 mi NNW 4.6 mph - N/A   Clear
1:53 AM 8.6 °F - 5.0 °F 85% 30.11 in 10.0 mi Calm Calm - N/A   Clear
2:13 AM 6.8 °F - 3.2 °F 85% 30.10 in 10.0 mi Calm Calm - N/A   Clear
2:32 AM 6.8 °F - 3.2 °F 85% 30.10 in 10.0 mi Calm Calm - N/A   Clear
2:53 AM 8.6 °F - 5.0 °F 85% 30.10 in 10.0 mi Calm Calm - N/A   Clear
3:32 AM 5.0 °F -4.1 °F 3.2 °F 92% 30.11 in 10.0 mi NNW 4.6 mph - N/A   Clear
3:53 AM 5.0 °F -5.6 °F 1.4 °F 85% 30.12 in 10.0 mi NW 5.8 mph - N/A   Mostly Cloudy
4:12 AM 6.8 °F -3.5 °F 3.2 °F 85% 30.13 in 10.0 mi WNW 5.8 mph - N/A   Overcast
4:32 AM 8.6 °F 0.1 °F 6.8 °F 92% 30.13 in 10.0 mi North 4.6 mph - N/A   Overcast
4:53 AM 10.4 °F - 6.8 °F 85% 30.13 in 10.0 mi Calm Calm - N/A   Overcast
5:12 AM 10.4 °F 2.2 °F 8.6 °F 92% 30.12 in 10.0 mi NNE 4.6 mph - N/A   Overcast
5:53 AM 10.4 °F 4.0 °F 8.6 °F 92% 30.12 in 10.0 mi North 3.5 mph - N/A   Overcast
6:12 AM 10.4 °F 4.0 °F 8.6 °F 92% 30.12 in 10.0 mi NNW 3.5 mph - N/A   Overcast
6:32 AM 12.2 °F 6.1 °F 8.6 °F 85% 30.13 in 10.0 mi North 3.5 mph - N/A   Overcast
6:53 AM 12.2 °F 6.1 °F 8.6 °F 85% 30.13 in 10.0 mi North 3.5 mph - N/A   Overcast
7:12 AM 12.2 °F 2.9 °F 10.4 °F 92% 30.13 in 10.0 mi North 5.8 mph - N/A   Overcast
7:32 AM 12.2 °F 4.3 °F 10.4 °F 92% 30.14 in 10.0 mi North 4.6 mph - N/A   Overcast
7:53 AM 12.2 °F 6.1 °F 10.4 °F 92% 30.15 in 10.0 mi NNW 3.5 mph - N/A   Overcast
8:12 AM 14.0 °F 5.1 °F 10.4 °F 86% 30.14 in 10.0 mi North 5.8 mph - N/A   Overcast
8:32 AM 14.0 °F 6.5 °F 10.4 °F 86% 30.15 in 10.0 mi North 4.6 mph - N/A   Overcast
8:53 AM 15.8 °F 8.6 °F 10.4 °F 79% 30.17 in 10.0 mi NNW 4.6 mph - N/A   Overcast
9:12 AM 15.8 °F 7.2 °F 10.4 °F 79% 30.17 in 10.0 mi NNW 5.8 mph - N/A   Overcast
9:32 AM 15.8 °F 7.2 °F 10.4 °F 79% 30.17 in 10.0 mi North 5.8 mph - N/A   Overcast
9:53 AM 15.8 °F 6.1 °F 10.4 °F 79% 30.16 in 10.0 mi North 6.9 mph - N/A   Overcast
10:12 AM 17.6 °F 8.2 °F 10.4 °F 73% 30.15 in 10.0 mi North 6.9 mph - N/A   Scattered Clouds
10:33 AM 17.6 °F 9.3 °F 12.2 °F 79% 30.16 in 10.0 mi NNW 5.8 mph - N/A   Clear
10:53 AM 19.4 °F 10.4 °F 12.2 °F 74% 30.16 in 10.0 mi NNW 6.9 mph - N/A   Clear
11:12 AM 19.4 °F 10.4 °F 12.2 °F 74% 30.17 in 10.0 mi North 6.9 mph - N/A   Clear
11:33 AM 19.4 °F 10.4 °F 12.2 °F 74% 30.17 in 10.0 mi NNW 6.9 mph - N/A   Clear
11:53 AM 21.2 °F 12.6 °F 14.0 °F 74% 30.17 in 10.0 mi NNW 6.9 mph - N/A   Clear
12:12 PM 21.2 °F 13.6 °F 15.8 °F 80% 30.17 in 10.0 mi North 5.8 mph - N/A   Clear
12:33 PM 23.0 °F 14.7 °F 15.8 °F 74% 30.17 in 10.0 mi North 6.9 mph - N/A   Clear
12:53 PM 23.0 °F 15.8 °F 15.8 °F 74% 30.17 in 10.0 mi NNW 5.8 mph - N/A   Clear
1:12 PM 24.8 °F 16.9 °F 15.8 °F 69% 30.16 in 10.0 mi North 6.9 mph - N/A   Clear
1:33 PM 24.8 °F 15.3 °F 15.8 °F 69% 30.15 in 10.0 mi North 9.2 mph - N/A   Clear
1:53 PM 24.8 °F 16.1 °F 17.6 °F 74% 30.15 in 10.0 mi North 8.1 mph - N/A   Clear
2:12 PM 24.8 °F 16.1 °F 17.6 °F 74% 30.15 in 10.0 mi North 8.1 mph - N/A   Clear
2:33 PM 24.8 °F 16.9 °F 17.6 °F 74% 30.15 in 10.0 mi North 6.9 mph - N/A   Clear
2:52 PM 24.8 °F 15.3 °F 17.6 °F 74% 30.14 in 10.0 mi NNW 9.2 mph - N/A   Clear
3:12 PM 24.8 °F 14.6 °F 17.6 °F 74% 30.14 in 10.0 mi North 10.4 mph - N/A   Clear
3:33 PM 24.8 °F 14.0 °F 17.6 °F 74% 30.14 in 10.0 mi NNW 11.5 mph - N/A   Clear
3:52 PM 24.8 °F 14.6 °F 17.6 °F 74% 30.13 in 10.0 mi North 10.4 mph - N/A   Clear
4:12 PM 24.8 °F 14.6 °F 17.6 °F 74% 30.14 in 10.0 mi North 10.4 mph - N/A   Clear
4:33 PM 24.8 °F 14.0 °F 17.6 °F 74% 30.14 in 10.0 mi North 11.5 mph - N/A   Clear
4:52 PM 24.8 °F 14.0 °F 17.6 °F 74% 30.15 in 10.0 mi NNW 11.5 mph - N/A   Clear
5:12 PM 24.8 °F 13.4 °F 15.8 °F 69% 30.15 in 10.0 mi North 12.7 mph - N/A   Clear
5:33 PM 24.8 °F 14.0 °F 15.8 °F 69% 30.14 in 10.0 mi North 11.5 mph - N/A   Clear
5:52 PM 24.8 °F 14.0 °F 17.6 °F 74% 30.15 in 10.0 mi North 11.5 mph - N/A   Clear
6:12 PM 23.0 °F 12.4 °F 17.6 °F 80% 30.15 in 10.0 mi North 10.4 mph - N/A   Clear
6:33 PM 23.0 °F 12.4 °F 17.6 °F 80% 30.15 in 10.0 mi NNW 10.4 mph - N/A   Clear
6:52 PM 23.0 °F 12.4 °F 17.6 °F 80% 30.16 in 10.0 mi NNW 10.4 mph - N/A   Clear
7:13 PM 21.2 °F 9.5 °F 17.6 °F 86% 30.16 in 10.0 mi North 11.5 mph - N/A   Clear
7:52 PM 21.2 °F 9.5 °F 15.8 °F 80% 30.16 in 10.0 mi North 11.5 mph - N/A   Clear
8:13 PM 21.2 °F 10.9 °F 15.8 °F 80% 30.16 in 10.0 mi North 9.2 mph - N/A   Clear
8:33 PM 21.2 °F 12.6 °F 15.8 °F 80% 30.16 in 10.0 mi North 6.9 mph - N/A   Clear
8:52 PM 21.2 °F 11.7 °F 15.8 °F 80% 30.16 in 10.0 mi North 8.1 mph - N/A   Clear
9:13 PM 19.4 °F 9.5 °F 15.8 °F 86% 30.16 in 10.0 mi North 8.1 mph - N/A   Clear
9:33 PM 19.4 °F 8.6 °F 15.8 °F 86% 30.16 in 10.0 mi North 9.2 mph - N/A   Clear
9:52 PM 19.4 °F 8.6 °F 15.8 °F 86% 30.16 in 10.0 mi North 9.2 mph - N/A   Clear
10:13 PM 19.4 °F 7.9 °F 15.8 °F 86% 30.16 in 10.0 mi North 10.4 mph - N/A   Clear
10:32 PM 19.4 °F 8.6 °F 15.8 °F 86% 30.16 in 10.0 mi North 9.2 mph - N/A   Clear
10:52 PM 19.4 °F 8.6 °F 15.8 °F 86% 30.15 in 10.0 mi North 9.2 mph - N/A   Clear
11:13 PM 17.6 °F 6.4 °F 15.8 °F 93% 30.15 in 10.0 mi North 9.2 mph - N/A   Clear
11:32 PM 17.6 °F 6.4 °F 15.8 °F 93% 30.15 in 10.0 mi North 9.2 mph - N/A   Clear
11:53 PM 17.6 °F 8.2 °F 15.8 °F 93% 30.14 in 10.0 mi North 6.9 mph - N/A   Scattered Clouds